DMSP 5D-2 F13 DEB, 40410

Orbit data source: Space-Track

DMSP 5D-2 F13 DEB, 40410 is space debris in SSO originally from a launch on Fri, 24 Mar 1995 UTC launched from the Air Force Western Test Range (AFWTR). Debris objects in space refer to the collection of defunct objects orbiting the Earth. Examples of debris include non-operational satellites, rocket bodies, and fragments generated from explosions, collisions, or faulty payload assembly.

Loading next visibility...
Identifier
40410, 1995-015X
Orbit
SSO
Country
Flag of USUS
Related business
Manufacturer
Unknown
Mission
Spacecraft
Bus & Motor
Unknown
Mass
Unknown
Launch date (UTC)
1995-03-24 (31 years ago)
Launch vehicle
Unknown
Launch site
Air Force Western Test Range (AFWTR)
Object type
Payload
Rocket body
Debris
Shape & HBR
Unknown shape, 0.1 m
Radar Cross Section
Small (<0.1 m²)

Expand to show TLE details & history
Last TLE update: 2 days ago

TLE from 2 days ago
0 DMSP 5D-2 F13 DEB
1 40410U 95015X   25287.78161959  .00002797  00000-0  12213-2 0  9995
2 40410  98.8186 307.9064 0017055 212.8942 147.1176 14.24605300549714
Epoch: 2025-10-14T18:45Z
TLE epoch observation values (Epoch: 2025-10-14T18:45:31.932Z)
Latitude
-0.00008°
Longitude
2.95824°
Altitude
823.04 km
Speed
7.436 km/s
True Right ascension
20h 31m 37s
True Declination
0° 00' 00"
Sunlit
Object was in daylight at epoch
Visualization orbit readout
Latitude
Unknown
Longitude
Unknown
Altitude
Unknown
Speed
Unknown
Apparent Right ascension
Unknown
Apparent Declination
Unknown
Sunlit
N/A
Visualization observer readout
Local Sidereal Time
07:49:04
Azimuth
Unknown
Elevation
Unknown
Doppler factor
Unknown
Orbital elements
Apogee altitude
819.232 km
Perigee altitude
794.723 km
Semi-major axis
7,185.115 km
Eccentricity
0.00171
Inclination
98.8186°
RAAN
307.9064°
Arg. of periapsis
212.8942°
True anomaly
147.22352°
Mean anomaly
147.1176°
Eccentric anomaly
147.17058°
Mean motion
3.56363 °/min
Orbital period
101.02 mins
BSTAR
0.0012213

Documentation

Showing up to 5 results
|